Terug naar catalogus

STARLINK-37504

ActiefCommunicatieSSO
NORAD 68913·PAYLOAD·🇺🇸 United States

Gelanceerd Apr 30, 2026 vanaf Vandenberg Space Force Base

Loading…

Volgende Passages (komende 24 uur)

TLE

VersSource: CelesTrak SupGP

Epoch: Sep 14, 2026, 21:23 UTC

1 68913C 26097U   26257.89145833  .00082978  00000+0  25752-2 0  2577
2 68913  97.2853  92.1108 0001465  97.6582 210.3619 15.33405215    19

Volg STARLINK-37504 in realtime met AllMySat

Download on the App Store